When you browse on this site, cookies collect data to enhance your experience and personalize the content and advertising you see.
Visit our Privacy Policy to learn more. By continuing to use the site, you agree to this use of cookies and data.

Stündliche Wetter Marakaibo

Heute, 7 Juli, Dienstag

Zeit Temperatur Niederschläge Wind Luftdruck Luftfeuchtigkeit
00:00 +28°C° 0.2 mm 4 m/S 753 mmHg 80%
01:00 +28°C° 0.2 mm 3 m/S 753 mmHg 80%
02:00 +28°C° 0.1 mm 3 m/S 753 mmHg 81%
03:00 +28°C° 0.1 mm 2 m/S 752 mmHg 82%
04:00 +27°C° 0.1 mm 2 m/S 752 mmHg 82%
05:00 +28°C° 0.1 mm 2 m/S 752 mmHg 80%
06:00 +28°C° 0.1 mm 1 m/S 753 mmHg 78%
07:00 +29°C° 0.1 mm 1 m/S 753 mmHg 76%
08:00 +30°C° 0.2 mm 1 m/S 753 mmHg 71%
09:00 +32°C° 0.2 mm 2 m/S 753 mmHg 65%
10:00 +34°C° 0.2 mm 2 m/S 753 mmHg 60%
11:00 +34°C° 0.7 mm 2 m/S 753 mmHg 59%
12:00 +35°C° 0.7 mm 2 m/S 752 mmHg 59%
13:00 +35°C° 0.7 mm 2 m/S 752 mmHg 58%
14:00 +34°C° 2.4 mm 2 m/S 751 mmHg 63%
15:00 +33°C° 2.4 mm 3 m/S 751 mmHg 68%
16:00 +31°C° 2.4 mm 3 m/S 750 mmHg 72%
17:00 +30°C° 1.1 mm 2 m/S 751 mmHg 77%
18:00 +29°C° 1.1 mm 2 m/S 751 mmHg 81%
19:00 +28°C° 1.1 mm 2 m/S 752 mmHg 86%
20:00 +28°C° 0.1 mm 2 m/S 752 mmHg 86%
21:00 +28°C° 0.1 mm 2 m/S 752 mmHg 87%
22:00 +28°C° 0.1 mm 3 m/S 752 mmHg 87%
23:00 +27°C° 0 mm 2 m/S 752 mmHg 88%

Morgen, 8 Juli, Mittwoch

Zeit Temperatur Niederschläge Wind Luftdruck Luftfeuchtigkeit
00:00 +27°C° 0 mm 2 m/S 752 mmHg 89%
01:00 +27°C° 0 mm 2 m/S 752 mmHg 90%
02:00 +27°C° 0.1 mm 2 m/S 751 mmHg 90%
03:00 +27°C° 0.1 mm 2 m/S 751 mmHg 91%
04:00 +27°C° 0.1 mm 1 m/S 751 mmHg 92%
05:00 +27°C° 0.1 mm 1 m/S 751 mmHg 90%
06:00 +28°C° 0.1 mm 1 m/S 752 mmHg 87%
07:00 +28°C° 0.1 mm 1 m/S 752 mmHg 85%
08:00 +30°C° 0 mm 1 m/S 752 mmHg 77%
09:00 +32°C° 0 mm 2 m/S 752 mmHg 69%
10:00 +34°C° 0 mm 2 m/S 752 mmHg 60%
11:00 +35°C° 0 mm 2 m/S 751 mmHg 59%
12:00 +35°C° 0 mm 2 m/S 751 mmHg 57%
13:00 +36°C° 0 mm 2 m/S 750 mmHg 55%
14:00 +36°C° 0 mm 2 m/S 750 mmHg 54%
15:00 +35°C° 0 mm 1 m/S 749 mmHg 53%
16:00 +35°C° 0 mm 1 m/S 749 mmHg 52%
17:00 +34°C° 0.3 mm 2 m/S 749 mmHg 59%
18:00 +31°C° 0.3 mm 3 m/S 750 mmHg 65%
19:00 +29°C° 0.3 mm 3 m/S 750 mmHg 72%
20:00 +29°C° 0.3 mm 3 m/S 751 mmHg 75%
21:00 +29°C° 0.3 mm 4 m/S 751 mmHg 79%
22:00 +28°C° 0.3 mm 4 m/S 752 mmHg 82%
23:00 +28°C° 0 mm 4 m/S 752 mmHg 83%

übermorgen, 9 Juli, Donnerstag

Zeit Temperatur Niederschläge Wind Luftdruck Luftfeuchtigkeit
00:00 +28°C° 0 mm 3 m/S 751 mmHg 83%
01:00 +28°C° 0 mm 3 m/S 751 mmHg 83%
02:00 +28°C° 0 mm 3 m/S 751 mmHg 84%
03:00 +27°C° 0 mm 2 m/S 751 mmHg 84%
04:00 +27°C° 0 mm 2 m/S 751 mmHg 84%
05:00 +27°C° 0 mm 2 m/S 751 mmHg 83%
06:00 +28°C° 0 mm 2 m/S 752 mmHg 82%
07:00 +28°C° 0 mm 2 m/S 752 mmHg 81%
08:00 +30°C° 0 mm 2 m/S 752 mmHg 74%
09:00 +32°C° 0 mm 2 m/S 752 mmHg 68%
10:00 +34°C° 0 mm 2 m/S 752 mmHg 62%
11:00 +35°C° 0.1 mm 2 m/S 752 mmHg 59%
12:00 +35°C° 0.1 mm 2 m/S 751 mmHg 55%
13:00 +36°C° 0.1 mm 3 m/S 751 mmHg 52%
14:00 +36°C° 0 mm 4 m/S 750 mmHg 52%
15:00 +36°C° 0 mm 5 m/S 750 mmHg 52%
16:00 +35°C° 0 mm 6 m/S 749 mmHg 53%
17:00 +34°C° 0 mm 6 m/S 750 mmHg 57%
18:00 +33°C° 0 mm 6 m/S 750 mmHg 61%
19:00 +30°C° 0 mm 6 m/S 751 mmHg 65%
20:00 +30°C° 0 mm 5 m/S 751 mmHg 66%
21:00 +30°C° 0 mm 5 m/S 752 mmHg 67%
22:00 +29°C° 0 mm 5 m/S 752 mmHg 68%
23:00 +29°C° 0 mm 4 m/S 752 mmHg 69%

10 Juli, Freitag

Zeit Temperatur Niederschläge Wind Luftdruck Luftfeuchtigkeit
00:00 +29°C° 0 mm 4 m/S 752 mmHg 70%
01:00 +28°C° 0 mm 3 m/S 752 mmHg 71%
02:00 +28°C° 0 mm 3 m/S 752 mmHg 72%
03:00 +27°C° 0 mm 3 m/S 752 mmHg 74%
04:00 +27°C° 0 mm 3 m/S 752 mmHg 75%
05:00 +28°C° 0 mm 3 m/S 752 mmHg 74%
06:00 +28°C° 0 mm 3 m/S 753 mmHg 72%
07:00 +29°C° 0 mm 3 m/S 753 mmHg 71%
08:00 +30°C° 0 mm 2 m/S 753 mmHg 65%
09:00 +32°C° 0 mm 2 m/S 753 mmHg 59%
10:00 +34°C° 0 mm 2 m/S 753 mmHg 53%
11:00 +35°C° 0 mm 2 m/S 753 mmHg 51%
12:00 +36°C° 0 mm 3 m/S 752 mmHg 49%
13:00 +36°C° 0 mm 3 m/S 751 mmHg 47%
14:00 +36°C° 0 mm 3 m/S 751 mmHg 49%
15:00 +35°C° 0 mm 4 m/S 751 mmHg 51%
16:00 +35°C° 0 mm 5 m/S 750 mmHg 53%
17:00 +33°C° 0 mm 5 m/S 751 mmHg 58%
18:00 +32°C° 0 mm 5 m/S 751 mmHg 64%
19:00 +30°C° 0 mm 6 m/S 752 mmHg 69%
20:00 +30°C° 0.1 mm 5 m/S 752 mmHg 70%
21:00 +30°C° 0.1 mm 5 m/S 753 mmHg 70%
22:00 +30°C° 0.1 mm 5 m/S 753 mmHg 70%
23:00 +29°C° 0.1 mm 5 m/S 753 mmHg 72%

11 Juli, Samstag

Zeit Temperatur Niederschläge Wind Luftdruck Luftfeuchtigkeit
00:00 +29°C° 0.1 mm 4 m/S 752 mmHg 74%
01:00 +28°C° 0.1 mm 3 m/S 752 mmHg 75%
02:00 +28°C° 0.1 mm 3 m/S 752 mmHg 76%
03:00 +27°C° 0.1 mm 3 m/S 752 mmHg 77%
04:00 +27°C° 0.1 mm 2 m/S 752 mmHg 78%
05:00 +28°C° 0.1 mm 2 m/S 752 mmHg 77%
06:00 +28°C° 0.1 mm 2 m/S 752 mmHg 75%
07:00 +28°C° 0.1 mm 2 m/S 752 mmHg 74%
08:00 +30°C° 0 mm 2 m/S 753 mmHg 68%
09:00 +32°C° 0 mm 1 m/S 753 mmHg 61%
10:00 +33°C° 0 mm 1 m/S 753 mmHg 55%
11:00 +35°C° 0 mm 2 m/S 752 mmHg 55%
12:00 +35°C° 0 mm 2 m/S 752 mmHg 54%
13:00 +35°C° 0 mm 2 m/S 751 mmHg 54%
14:00 +35°C° 0.1 mm 3 m/S 751 mmHg 55%
15:00 +34°C° 0.1 mm 3 m/S 750 mmHg 57%
16:00 +34°C° 0.1 mm 4 m/S 750 mmHg 58%
17:00 +33°C° 0.1 mm 4 m/S 750 mmHg 63%
18:00 +32°C° 0.1 mm 4 m/S 750 mmHg 68%
19:00 +30°C° 0.1 mm 4 m/S 750 mmHg 74%
20:00 +30°C° 0.1 mm 5 m/S 751 mmHg 73%
21:00 +30°C° 0.1 mm 5 m/S 752 mmHg 72%
22:00 +30°C° 0.1 mm 5 m/S 752 mmHg 71%
23:00 +29°C° 0.1 mm 4 m/S 752 mmHg 73%

12 Juli, Sonntag

Zeit Temperatur Niederschläge Wind Luftdruck Luftfeuchtigkeit
00:00 +29°C° 0.1 mm 4 m/S 751 mmHg 74%
01:00 +29°C° 0.1 mm 3 m/S 751 mmHg 76%
02:00 +28°C° 0.8 mm 3 m/S 751 mmHg 78%
03:00 +28°C° 0.8 mm 3 m/S 751 mmHg 80%
04:00 +27°C° 0.8 mm 2 m/S 751 mmHg 82%
05:00 +28°C° 0.3 mm 2 m/S 751 mmHg 80%
06:00 +28°C° 0.3 mm 3 m/S 752 mmHg 78%
07:00 +29°C° 0.3 mm 3 m/S 752 mmHg 77%
08:00 +30°C° 0.7 mm 3 m/S 752 mmHg 71%
09:00 +31°C° 0.7 mm 2 m/S 752 mmHg 66%
10:00 +34°C° 0.7 mm 2 m/S 752 mmHg 60%
11:00 +34°C° 1.3 mm 2 m/S 752 mmHg 60%
12:00 +34°C° 1.3 mm 2 m/S 751 mmHg 59%
13:00 +35°C° 1.3 mm 2 m/S 751 mmHg 58%
14:00 +35°C° 0.2 mm 2 m/S 750 mmHg 58%
15:00 +34°C° 0.2 mm 2 m/S 750 mmHg 58%
16:00 +34°C° 0.2 mm 2 m/S 749 mmHg 58%
17:00 +32°C° 0.3 mm 2 m/S 750 mmHg 65%
18:00 +31°C° 0.3 mm 3 m/S 750 mmHg 72%
19:00 +29°C° 0.3 mm 3 m/S 751 mmHg 78%
20:00 +29°C° 0.6 mm 3 m/S 751 mmHg 81%
21:00 +29°C° 0.6 mm 3 m/S 752 mmHg 83%
22:00 +29°C° 0.6 mm 3 m/S 752 mmHg 85%
23:00 +28°C° 0.8 mm 3 m/S 752 mmHg 86%
Mehr zeigen